<?xml version="1.0" encoding="UTF-8" standalone="no" ?>
<gpx xmlns="http://www.topografix.com/GPX/1/1" xmlns:xsi="http://www.w3.org/2001/XMLSchema-instance" xsi:schemaLocation="http://www.topografix.com/GPX/1/1 http://www.topografix.com/GPX/1/1/gpx.xsd" version="1.1" creator="VisuGPX - https://www.visugpx.com">
  <metadata>
    <name>TOUR DE LA FORET DE FONTAINEBLEAU</name>
    <desc><![CDATA[UNE BELLE PROMENADE EN FORET]]></desc>
  </metadata>
  <trk>
    <name><![CDATA[TOUR-FONTAINEBLEAU1]]></name>
    <trkseg>
      <trkpt lat="48.41751" lon="2.50165">
        <ele>128</ele>
        <time>2016-04-19T19:27:32Z</time>
      </trkpt>
      <trkpt lat="48.41675" lon="2.5095">
        <ele>132.1</ele>
        <time>2016-04-19T19:27:32Z</time>
      </trkpt>
      <trkpt lat="48.41623" lon="2.51558">
        <ele>124</ele>
        <time>2016-04-19T19:27:32Z</time>
      </trkpt>
      <trkpt lat="48.41672" lon="2.5179">
        <ele>115.3</ele>
      </trkpt>
      <trkpt lat="48.41782" lon="2.51904">
        <ele>102.9</ele>
        <time>2016-04-19T19:27:32Z</time>
      </trkpt>
      <trkpt lat="48.41825" lon="2.5177">
        <ele>90.6</ele>
      </trkpt>
      <trkpt lat="48.41799" lon="2.51664">
        <ele>102.4</ele>
      </trkpt>
      <trkpt lat="48.41848" lon="2.51673">
        <ele>97.3</ele>
        <time>2016-04-19T19:27:32Z</time>
      </trkpt>
      <trkpt lat="48.42026" lon="2.51805">
        <ele>81.3</ele>
        <time>2016-04-19T19:27:32Z</time>
      </trkpt>
      <trkpt lat="48.42052" lon="2.51956">
        <ele>79.4</ele>
      </trkpt>
      <trkpt lat="48.4195" lon="2.52435">
        <ele>80.4</ele>
        <time>2016-04-19T19:27:32Z</time>
      </trkpt>
      <trkpt lat="48.41818" lon="2.53051">
        <ele>80.1</ele>
        <time>2016-04-19T19:27:32Z</time>
      </trkpt>
      <trkpt lat="48.41777" lon="2.53297">
        <ele>80.6</ele>
        <time>2016-04-19T19:27:32Z</time>
      </trkpt>
      <trkpt lat="48.41516" lon="2.53643">
        <ele>75.9</ele>
        <time>2016-04-19T19:27:32Z</time>
      </trkpt>
      <trkpt lat="48.41408" lon="2.53621">
        <ele>80.7</ele>
        <time>2016-04-19T19:27:32Z</time>
      </trkpt>
      <trkpt lat="48.41311" lon="2.53747">
        <ele>81.7</ele>
        <time>2016-04-19T19:27:32Z</time>
      </trkpt>
      <trkpt lat="48.41014" lon="2.53973">
        <ele>79.6</ele>
        <time>2016-04-19T19:27:32Z</time>
      </trkpt>
      <trkpt lat="48.407" lon="2.54079">
        <ele>76.5</ele>
      </trkpt>
      <trkpt lat="48.40616" lon="2.5414">
        <ele>77.1</ele>
      </trkpt>
      <trkpt lat="48.40466" lon="2.54205">
        <ele>89.1</ele>
      </trkpt>
      <trkpt lat="48.40316" lon="2.54235">
        <ele>94.3</ele>
      </trkpt>
      <trkpt lat="48.40359" lon="2.53948">
        <ele>106.2</ele>
      </trkpt>
      <trkpt lat="48.40369" lon="2.53908">
        <ele>104</ele>
      </trkpt>
      <trkpt lat="48.40369" lon="2.53863">
        <ele>103.6</ele>
      </trkpt>
      <trkpt lat="48.40332" lon="2.53888">
        <ele>106.8</ele>
      </trkpt>
      <trkpt lat="48.40299" lon="2.53973">
        <ele>103.4</ele>
      </trkpt>
      <trkpt lat="48.40245" lon="2.53818">
        <ele>96.6</ele>
      </trkpt>
      <trkpt lat="48.40192" lon="2.53943">
        <ele>94.7</ele>
      </trkpt>
      <trkpt lat="48.40065" lon="2.54109">
        <ele>94.5</ele>
      </trkpt>
      <trkpt lat="48.39881" lon="2.53994">
        <ele>104</ele>
      </trkpt>
      <trkpt lat="48.39791" lon="2.54084">
        <ele>90</ele>
      </trkpt>
      <trkpt lat="48.39748" lon="2.54285">
        <ele>85.5</ele>
      </trkpt>
      <trkpt lat="48.39721" lon="2.54401">
        <ele>82.6</ele>
      </trkpt>
      <trkpt lat="48.39721" lon="2.54517">
        <ele>79</ele>
      </trkpt>
      <trkpt lat="48.39604" lon="2.54789">
        <ele>79.6</ele>
      </trkpt>
      <trkpt lat="48.39484" lon="2.55156">
        <ele>73.7</ele>
      </trkpt>
      <trkpt lat="48.39367" lon="2.55221">
        <ele>76.9</ele>
      </trkpt>
      <trkpt lat="48.3929" lon="2.55216">
        <ele>78.6</ele>
      </trkpt>
      <trkpt lat="48.39287" lon="2.55141">
        <ele>79.8</ele>
      </trkpt>
      <trkpt lat="48.39217" lon="2.55096">
        <ele>79.5</ele>
      </trkpt>
      <trkpt lat="48.39126" lon="2.55252">
        <ele>79.9</ele>
      </trkpt>
      <trkpt lat="48.39049" lon="2.55241">
        <ele>79.5</ele>
      </trkpt>
      <trkpt lat="48.39026" lon="2.55372">
        <ele>75.6</ele>
        <time>2016-04-19T19:27:32Z</time>
      </trkpt>
      <trkpt lat="48.38966" lon="2.55523">
        <ele>75.1</ele>
      </trkpt>
      <trkpt lat="48.39093" lon="2.55755">
        <ele>77.2</ele>
      </trkpt>
      <trkpt lat="48.39297" lon="2.55508">
        <ele>77.1</ele>
      </trkpt>
      <trkpt lat="48.3945" lon="2.55594">
        <ele>78</ele>
      </trkpt>
      <trkpt lat="48.39454" lon="2.55961">
        <ele>82.2</ele>
      </trkpt>
      <trkpt lat="48.39424" lon="2.56187">
        <ele>82.4</ele>
      </trkpt>
      <trkpt lat="48.39404" lon="2.56399">
        <ele>76.6</ele>
      </trkpt>
      <trkpt lat="48.39902" lon="2.56706">
        <ele>81</ele>
        <time>2016-04-19T19:27:32Z</time>
      </trkpt>
      <trkpt lat="48.39915" lon="2.56766">
        <ele>83</ele>
      </trkpt>
      <trkpt lat="48.39982" lon="2.56786">
        <ele>85.8</ele>
      </trkpt>
      <trkpt lat="48.40252" lon="2.56741">
        <ele>79.2</ele>
      </trkpt>
      <trkpt lat="48.40269" lon="2.57128">
        <ele>85.1</ele>
        <time>2016-04-19T19:27:32Z</time>
      </trkpt>
      <trkpt lat="48.40274" lon="2.57548">
        <ele>81.7</ele>
        <time>2016-04-19T19:27:32Z</time>
      </trkpt>
      <trkpt lat="48.40325" lon="2.58019">
        <ele>79.4</ele>
        <time>2016-04-19T19:27:32Z</time>
      </trkpt>
      <trkpt lat="48.40261" lon="2.58418">
        <ele>79.1</ele>
        <time>2016-04-19T19:27:32Z</time>
      </trkpt>
      <trkpt lat="48.40459" lon="2.58512">
        <ele>81.2</ele>
        <time>2016-04-19T19:27:32Z</time>
      </trkpt>
      <trkpt lat="48.40526" lon="2.58562">
        <ele>83.7</ele>
      </trkpt>
      <trkpt lat="48.40497" lon="2.58954">
        <ele>106.6</ele>
        <time>2016-04-19T19:27:32Z</time>
      </trkpt>
      <trkpt lat="48.40629" lon="2.5905">
        <ele>120.9</ele>
        <time>2016-04-19T19:27:32Z</time>
      </trkpt>
      <trkpt lat="48.40625" lon="2.59205">
        <ele>119.6</ele>
        <time>2016-04-19T19:27:32Z</time>
      </trkpt>
      <trkpt lat="48.40715" lon="2.59205">
        <ele>110.3</ele>
        <time>2016-04-19T19:27:32Z</time>
      </trkpt>
      <trkpt lat="48.40766" lon="2.59269">
        <ele>100.5</ele>
        <time>2016-04-19T19:27:32Z</time>
      </trkpt>
      <trkpt lat="48.40984" lon="2.59191">
        <ele>83.7</ele>
      </trkpt>
      <trkpt lat="48.40942" lon="2.59585">
        <ele>81.6</ele>
        <time>2016-04-19T19:27:32Z</time>
      </trkpt>
      <trkpt lat="48.40929" lon="2.59798">
        <ele>85.3</ele>
        <time>2016-04-19T19:27:32Z</time>
      </trkpt>
      <trkpt lat="48.40809" lon="2.60372">
        <ele>107.2</ele>
        <time>2016-04-19T19:27:32Z</time>
      </trkpt>
      <trkpt lat="48.40766" lon="2.60804">
        <ele>105.5</ele>
        <time>2016-04-19T19:27:32Z</time>
      </trkpt>
      <trkpt lat="48.40823" lon="2.60872">
        <ele>110.6</ele>
      </trkpt>
      <trkpt lat="48.41036" lon="2.60797">
        <ele>94.7</ele>
        <time>2016-04-19T19:27:32Z</time>
      </trkpt>
      <trkpt lat="48.41121" lon="2.60952">
        <ele>90.4</ele>
        <time>2016-04-19T19:27:32Z</time>
      </trkpt>
      <trkpt lat="48.41618" lon="2.60741">
        <ele>83.3</ele>
        <time>2016-04-19T19:27:32Z</time>
      </trkpt>
      <trkpt lat="48.42315" lon="2.61423">
        <ele>97.7</ele>
        <time>2016-04-19T19:27:32Z</time>
      </trkpt>
      <trkpt lat="48.42914" lon="2.62054">
        <ele>135.1</ele>
        <time>2016-04-19T19:27:32Z</time>
      </trkpt>
      <trkpt lat="48.43278" lon="2.62409">
        <ele>113.4</ele>
        <time>2016-04-19T19:27:32Z</time>
      </trkpt>
      <trkpt lat="48.43408" lon="2.62391">
        <ele>100.2</ele>
        <time>2016-04-19T19:27:32Z</time>
      </trkpt>
      <trkpt lat="48.43638" lon="2.62411">
        <ele>96.7</ele>
        <time>2016-04-19T19:27:32Z</time>
      </trkpt>
      <trkpt lat="48.43685" lon="2.62401">
        <ele>95.8</ele>
        <time>2016-04-19T19:27:32Z</time>
      </trkpt>
      <trkpt lat="48.43735" lon="2.62409">
        <ele>95.3</ele>
        <time>2016-04-19T19:27:32Z</time>
      </trkpt>
      <trkpt lat="48.44065" lon="2.62428">
        <ele>92</ele>
        <time>2016-04-19T19:27:32Z</time>
      </trkpt>
      <trkpt lat="48.44146" lon="2.62447">
        <ele>93.2</ele>
      </trkpt>
      <trkpt lat="48.44189" lon="2.62436">
        <ele>94.7</ele>
        <time>2016-04-19T19:27:32Z</time>
      </trkpt>
      <trkpt lat="48.44306" lon="2.62457">
        <ele>96.2</ele>
      </trkpt>
      <trkpt lat="48.44686" lon="2.62653">
        <ele>85.6</ele>
        <time>2016-04-19T19:27:32Z</time>
      </trkpt>
      <trkpt lat="48.44958" lon="2.62822">
        <ele>89.2</ele>
        <time>2016-04-19T19:27:32Z</time>
      </trkpt>
      <trkpt lat="48.4533" lon="2.63028">
        <ele>92.6</ele>
        <time>2016-04-19T19:27:32Z</time>
      </trkpt>
      <trkpt lat="48.45407" lon="2.63312">
        <ele>100.5</ele>
        <time>2016-04-19T19:27:32Z</time>
      </trkpt>
      <trkpt lat="48.45531" lon="2.63518">
        <ele>102.9</ele>
        <time>2016-04-19T19:27:32Z</time>
      </trkpt>
      <trkpt lat="48.46087" lon="2.63924">
        <ele>103</ele>
        <time>2016-04-19T19:27:32Z</time>
      </trkpt>
      <trkpt lat="48.46207" lon="2.6435">
        <ele>103.3</ele>
        <time>2016-04-19T19:27:32Z</time>
      </trkpt>
      <trkpt lat="48.46131" lon="2.64575">
        <ele>100.5</ele>
      </trkpt>
      <trkpt lat="48.46125" lon="2.65078">
        <ele>104.7</ele>
        <time>2016-04-19T19:27:32Z</time>
      </trkpt>
      <trkpt lat="48.45981" lon="2.65938">
        <ele>107.1</ele>
      </trkpt>
      <trkpt lat="48.45961" lon="2.6627">
        <ele>104.4</ele>
        <time>2016-04-19T19:27:32Z</time>
      </trkpt>
      <trkpt lat="48.45984" lon="2.66477">
        <ele>98.7</ele>
      </trkpt>
      <trkpt lat="48.46091" lon="2.66688">
        <ele>88.6</ele>
        <time>2016-04-19T19:27:32Z</time>
      </trkpt>
      <trkpt lat="48.46585" lon="2.66432">
        <ele>94.2</ele>
      </trkpt>
      <trkpt lat="48.47022" lon="2.6621">
        <ele>94.6</ele>
        <time>2016-04-19T19:27:32Z</time>
      </trkpt>
      <trkpt lat="48.47222" lon="2.66069">
        <ele>93</ele>
        <time>2016-04-19T19:27:32Z</time>
      </trkpt>
      <trkpt lat="48.47378" lon="2.66122">
        <ele>89.3</ele>
        <time>2016-04-19T19:27:32Z</time>
      </trkpt>
      <trkpt lat="48.47342" lon="2.65863">
        <ele>88.6</ele>
        <time>2016-04-19T19:27:32Z</time>
      </trkpt>
      <trkpt lat="48.47459" lon="2.65571">
        <ele>91.3</ele>
        <time>2016-04-19T19:27:32Z</time>
      </trkpt>
      <trkpt lat="48.47549" lon="2.65481">
        <ele>91.3</ele>
      </trkpt>
      <trkpt lat="48.47726" lon="2.65581">
        <ele>89.1</ele>
      </trkpt>
      <trkpt lat="48.47779" lon="2.65707">
        <ele>93.1</ele>
      </trkpt>
      <trkpt lat="48.47716" lon="2.65999">
        <ele>92.4</ele>
      </trkpt>
      <trkpt lat="48.47686" lon="2.66135">
        <ele>94</ele>
      </trkpt>
      <trkpt lat="48.48006" lon="2.6618">
        <ele>95.2</ele>
      </trkpt>
      <trkpt lat="48.48119" lon="2.66341">
        <ele>103.7</ele>
      </trkpt>
      <trkpt lat="48.48199" lon="2.66462">
        <ele>111.3</ele>
      </trkpt>
      <trkpt lat="48.48318" lon="2.66586">
        <ele>109.3</ele>
        <time>2016-04-19T19:27:32Z</time>
      </trkpt>
      <trkpt lat="48.48344" lon="2.67251">
        <ele>93.3</ele>
        <time>2016-04-19T19:27:32Z</time>
      </trkpt>
      <trkpt lat="48.48419" lon="2.67342">
        <ele>91.3</ele>
        <time>2016-04-19T19:27:32Z</time>
      </trkpt>
      <trkpt lat="48.485" lon="2.67443">
        <ele>77.3</ele>
      </trkpt>
      <trkpt lat="48.4861" lon="2.67297">
        <ele>84.7</ele>
        <time>2016-04-19T19:27:32Z</time>
      </trkpt>
      <trkpt lat="48.48783" lon="2.67393">
        <ele>46.5</ele>
        <time>2016-04-19T19:27:32Z</time>
      </trkpt>
      <trkpt lat="48.48359" lon="2.68001">
        <ele>42.4</ele>
        <time>2016-04-19T19:27:32Z</time>
      </trkpt>
      <trkpt lat="48.48179" lon="2.6858">
        <ele>42.7</ele>
        <time>2016-04-19T19:27:32Z</time>
      </trkpt>
      <trkpt lat="48.48143" lon="2.6882">
        <ele>41.6</ele>
        <time>2016-04-19T19:27:32Z</time>
      </trkpt>
      <trkpt lat="48.48049" lon="2.69506">
        <ele>41.9</ele>
      </trkpt>
      <trkpt lat="48.48082" lon="2.70135">
        <ele>39.8</ele>
        <time>2016-04-19T19:27:32Z</time>
      </trkpt>
      <trkpt lat="48.48255" lon="2.71044">
        <ele>38.4</ele>
        <time>2016-04-19T19:27:32Z</time>
      </trkpt>
      <trkpt lat="48.48474" lon="2.71723">
        <ele>42.6</ele>
        <time>2016-04-19T19:27:32Z</time>
      </trkpt>
      <trkpt lat="48.48581" lon="2.73418">
        <ele>43</ele>
        <time>2016-04-19T19:27:32Z</time>
      </trkpt>
      <trkpt lat="48.48647" lon="2.74346">
        <ele>44.3</ele>
        <time>2016-04-19T19:27:32Z</time>
      </trkpt>
      <trkpt lat="48.48578" lon="2.7491">
        <ele>45.7</ele>
        <time>2016-04-19T19:27:32Z</time>
      </trkpt>
      <trkpt lat="48.48392" lon="2.75646">
        <ele>46.1</ele>
        <time>2016-04-19T19:27:32Z</time>
      </trkpt>
      <trkpt lat="48.47815" lon="2.76455">
        <ele>48.5</ele>
        <time>2016-04-19T19:27:32Z</time>
      </trkpt>
      <trkpt lat="48.47388" lon="2.76808">
        <ele>49.5</ele>
        <time>2016-04-19T19:27:32Z</time>
      </trkpt>
      <trkpt lat="48.4672" lon="2.77092">
        <ele>48.1</ele>
        <time>2016-04-19T19:27:32Z</time>
      </trkpt>
      <trkpt lat="48.46397" lon="2.77023">
        <ele>45.7</ele>
        <time>2016-04-19T19:27:32Z</time>
      </trkpt>
      <trkpt lat="48.46178" lon="2.76985">
        <ele>47.8</ele>
        <time>2016-04-19T19:27:32Z</time>
      </trkpt>
      <trkpt lat="48.45893" lon="2.76946">
        <ele>42</ele>
        <time>2016-04-19T19:27:32Z</time>
      </trkpt>
      <trkpt lat="48.45501" lon="2.76628">
        <ele>42</ele>
        <time>2016-04-19T19:27:32Z</time>
      </trkpt>
      <trkpt lat="48.4528" lon="2.76034">
        <ele>44.6</ele>
        <time>2016-04-19T19:27:32Z</time>
      </trkpt>
      <trkpt lat="48.45186" lon="2.75884">
        <ele>43</ele>
        <time>2016-04-19T19:27:32Z</time>
      </trkpt>
      <trkpt lat="48.45018" lon="2.75731">
        <ele>46.1</ele>
        <time>2016-04-19T19:27:32Z</time>
      </trkpt>
      <trkpt lat="48.44896" lon="2.75589">
        <ele>47</ele>
        <time>2016-04-19T19:27:32Z</time>
      </trkpt>
      <trkpt lat="48.44728" lon="2.75355">
        <ele>45.5</ele>
        <time>2016-04-19T19:27:32Z</time>
      </trkpt>
      <trkpt lat="48.44664" lon="2.75221">
        <ele>52.6</ele>
        <time>2016-04-19T19:27:32Z</time>
      </trkpt>
      <trkpt lat="48.4441" lon="2.74948">
        <ele>63.3</ele>
        <time>2016-04-19T19:27:32Z</time>
      </trkpt>
      <trkpt lat="48.43988" lon="2.74634">
        <ele>73.8</ele>
        <time>2016-04-19T19:27:32Z</time>
      </trkpt>
      <trkpt lat="48.4385" lon="2.74584">
        <ele>61.8</ele>
        <time>2016-04-19T19:27:32Z</time>
      </trkpt>
      <trkpt lat="48.43527" lon="2.74434">
        <ele>61.6</ele>
        <time>2016-04-19T19:27:32Z</time>
      </trkpt>
      <trkpt lat="48.44089" lon="2.74411">
        <ele>97</ele>
        <time>2016-04-19T19:27:32Z</time>
      </trkpt>
      <trkpt lat="48.44142" lon="2.74371">
        <ele>97.5</ele>
        <time>2016-04-19T19:27:32Z</time>
      </trkpt>
      <trkpt lat="48.44232" lon="2.74261">
        <ele>98.9</ele>
      </trkpt>
      <trkpt lat="48.44359" lon="2.74311">
        <ele>97.7</ele>
        <time>2016-04-19T19:27:32Z</time>
      </trkpt>
      <trkpt lat="48.44633" lon="2.74004">
        <ele>98.6</ele>
      </trkpt>
      <trkpt lat="48.4482" lon="2.73818">
        <ele>99.5</ele>
        <time>2016-04-19T19:27:32Z</time>
      </trkpt>
      <trkpt lat="48.45054" lon="2.73548">
        <ele>101.2</ele>
        <time>2016-04-19T19:27:32Z</time>
      </trkpt>
      <trkpt lat="48.4504" lon="2.7338">
        <ele>102.3</ele>
      </trkpt>
      <trkpt lat="48.4497" lon="2.73264">
        <ele>100</ele>
      </trkpt>
      <trkpt lat="48.44973" lon="2.73122">
        <ele>99.2</ele>
        <time>2016-04-19T19:27:32Z</time>
      </trkpt>
      <trkpt lat="48.4489" lon="2.73028">
        <ele>99.2</ele>
      </trkpt>
      <trkpt lat="48.44779" lon="2.73006">
        <ele>99.7</ele>
        <time>2016-04-19T19:27:32Z</time>
      </trkpt>
      <trkpt lat="48.449" lon="2.72862">
        <ele>97.2</ele>
      </trkpt>
      <trkpt lat="48.44878" lon="2.72806">
        <ele>95.6</ele>
        <time>2016-04-19T19:27:32Z</time>
      </trkpt>
      <trkpt lat="48.44883" lon="2.72535">
        <ele>99.4</ele>
      </trkpt>
      <trkpt lat="48.44837" lon="2.72353">
        <ele>99.1</ele>
        <time>2016-04-19T19:27:32Z</time>
      </trkpt>
      <trkpt lat="48.44803" lon="2.72188">
        <ele>99.5</ele>
      </trkpt>
      <trkpt lat="48.4472" lon="2.72137">
        <ele>99.3</ele>
        <time>2016-04-19T19:27:32Z</time>
      </trkpt>
      <trkpt lat="48.44693" lon="2.71906">
        <ele>100</ele>
      </trkpt>
      <trkpt lat="48.4478" lon="2.71951">
        <ele>97.4</ele>
      </trkpt>
      <trkpt lat="48.44753" lon="2.7181">
        <ele>98.7</ele>
      </trkpt>
      <trkpt lat="48.44768" lon="2.71523">
        <ele>98.6</ele>
        <time>2016-04-19T19:27:32Z</time>
      </trkpt>
      <trkpt lat="48.44836" lon="2.71463">
        <ele>97.4</ele>
      </trkpt>
      <trkpt lat="48.44863" lon="2.71263">
        <ele>97</ele>
        <time>2016-04-19T19:27:32Z</time>
      </trkpt>
      <trkpt lat="48.44786" lon="2.71216">
        <ele>94.6</ele>
      </trkpt>
      <trkpt lat="48.44716" lon="2.71272">
        <ele>96.6</ele>
      </trkpt>
      <trkpt lat="48.44617" lon="2.71246">
        <ele>98.2</ele>
        <time>2016-04-19T19:27:32Z</time>
      </trkpt>
      <trkpt lat="48.44665" lon="2.70892">
        <ele>88.1</ele>
        <time>2016-04-19T19:27:32Z</time>
      </trkpt>
      <trkpt lat="48.4466" lon="2.70774">
        <ele>86.6</ele>
      </trkpt>
      <trkpt lat="48.44613" lon="2.70678">
        <ele>85.7</ele>
      </trkpt>
      <trkpt lat="48.44492" lon="2.70637">
        <ele>90.6</ele>
        <time>2016-04-19T19:27:32Z</time>
      </trkpt>
      <trkpt lat="48.44364" lon="2.70405">
        <ele>92.2</ele>
        <time>2016-04-19T19:27:32Z</time>
      </trkpt>
      <trkpt lat="48.44326" lon="2.70286">
        <ele>93.1</ele>
      </trkpt>
      <trkpt lat="48.44383" lon="2.7016">
        <ele>90.2</ele>
      </trkpt>
      <trkpt lat="48.4436" lon="2.69962">
        <ele>91.2</ele>
        <time>2016-04-19T19:27:32Z</time>
      </trkpt>
      <trkpt lat="48.44296" lon="2.69873">
        <ele>94.9</ele>
      </trkpt>
      <trkpt lat="48.44294" lon="2.69785">
        <ele>96.5</ele>
        <time>2016-04-19T19:27:32Z</time>
      </trkpt>
      <trkpt lat="48.43967" lon="2.69769">
        <ele>93.6</ele>
        <time>2016-04-19T19:27:32Z</time>
      </trkpt>
      <trkpt lat="48.43854" lon="2.69774">
        <ele>104</ele>
        <time>2016-04-19T19:27:32Z</time>
      </trkpt>
      <trkpt lat="48.43633" lon="2.69741">
        <ele>107.3</ele>
        <time>2016-04-19T19:27:32Z</time>
      </trkpt>
      <trkpt lat="48.43567" lon="2.70089">
        <ele>117.7</ele>
        <time>2016-04-19T19:27:32Z</time>
      </trkpt>
      <trkpt lat="48.43545" lon="2.70599">
        <ele>141.6</ele>
        <time>2016-04-19T19:27:32Z</time>
      </trkpt>
      <trkpt lat="48.4359" lon="2.70529">
        <ele>142.9</ele>
      </trkpt>
      <trkpt lat="48.43611" lon="2.70438">
        <ele>138.8</ele>
        <time>2016-04-19T19:27:32Z</time>
      </trkpt>
      <trkpt lat="48.43679" lon="2.70266">
        <ele>139.7</ele>
      </trkpt>
      <trkpt lat="48.43716" lon="2.70263">
        <ele>137.9</ele>
        <time>2016-04-19T19:27:32Z</time>
      </trkpt>
      <trkpt lat="48.43703" lon="2.70358">
        <ele>131.1</ele>
        <time>2016-04-19T19:27:32Z</time>
      </trkpt>
      <trkpt lat="48.4371" lon="2.70457">
        <ele>128.4</ele>
        <time>2016-04-19T19:27:32Z</time>
      </trkpt>
      <trkpt lat="48.43758" lon="2.70579">
        <ele>122.8</ele>
      </trkpt>
      <trkpt lat="48.43671" lon="2.70595">
        <ele>137.9</ele>
        <time>2016-04-19T19:27:32Z</time>
      </trkpt>
      <trkpt lat="48.43697" lon="2.7071">
        <ele>130.7</ele>
      </trkpt>
      <trkpt lat="48.43784" lon="2.70783">
        <ele>121.1</ele>
      </trkpt>
      <trkpt lat="48.43697" lon="2.70832">
        <ele>131.6</ele>
      </trkpt>
      <trkpt lat="48.43593" lon="2.71014">
        <ele>123.9</ele>
        <time>2016-04-19T19:27:32Z</time>
      </trkpt>
      <trkpt lat="48.43538" lon="2.71075">
        <ele>120.8</ele>
      </trkpt>
      <trkpt lat="48.4349" lon="2.71059">
        <ele>125</ele>
      </trkpt>
      <trkpt lat="48.4349" lon="2.71059">
        <ele>125</ele>
      </trkpt>
      <trkpt lat="48.43494" lon="2.71008">
        <ele>129.8</ele>
        <time>2016-04-19T19:27:32Z</time>
      </trkpt>
      <trkpt lat="48.43442" lon="2.70737">
        <ele>132.7</ele>
        <time>2016-04-19T19:27:32Z</time>
      </trkpt>
      <trkpt lat="48.43428" lon="2.70651">
        <ele>133.4</ele>
      </trkpt>
      <trkpt lat="48.4338" lon="2.70587">
        <ele>134.8</ele>
        <time>2016-04-19T19:27:32Z</time>
      </trkpt>
      <trkpt lat="48.43152" lon="2.70682">
        <ele>138.6</ele>
        <time>2016-04-19T19:27:32Z</time>
      </trkpt>
      <trkpt lat="48.43044" lon="2.70674">
        <ele>142.2</ele>
      </trkpt>
      <trkpt lat="48.42899" lon="2.70781">
        <ele>145.9</ele>
        <time>2016-04-19T19:27:32Z</time>
      </trkpt>
      <trkpt lat="48.42743" lon="2.70773">
        <ele>151.8</ele>
      </trkpt>
      <trkpt lat="48.4268" lon="2.70756">
        <ele>152</ele>
      </trkpt>
      <trkpt lat="48.42556" lon="2.70816">
        <ele>149.4</ele>
      </trkpt>
      <trkpt lat="48.42565" lon="2.70853">
        <ele>150</ele>
        <time>2016-04-19T19:27:32Z</time>
      </trkpt>
      <trkpt lat="48.42521" lon="2.70921">
        <ele>150.4</ele>
        <time>2016-04-19T19:27:32Z</time>
      </trkpt>
      <trkpt lat="48.4255" lon="2.71047">
        <ele>155.3</ele>
        <time>2016-04-19T19:27:32Z</time>
      </trkpt>
      <trkpt lat="48.42547" lon="2.71049">
        <ele>155.2</ele>
      </trkpt>
      <trkpt lat="48.42551" lon="2.71194">
        <ele>158.1</ele>
        <time>2016-04-19T19:27:32Z</time>
      </trkpt>
      <trkpt lat="48.42525" lon="2.71378">
        <ele>159.6</ele>
        <time>2016-04-19T19:27:32Z</time>
      </trkpt>
      <trkpt lat="48.42449" lon="2.71523">
        <ele>158.2</ele>
        <time>2016-04-19T19:27:32Z</time>
      </trkpt>
      <trkpt lat="48.42377" lon="2.71536">
        <ele>156.8</ele>
      </trkpt>
      <trkpt lat="48.42311" lon="2.71575">
        <ele>154.9</ele>
      </trkpt>
      <trkpt lat="48.42189" lon="2.71536">
        <ele>149.9</ele>
      </trkpt>
      <trkpt lat="48.42187" lon="2.71545">
        <ele>149.9</ele>
        <time>2016-04-19T19:27:32Z</time>
      </trkpt>
      <trkpt lat="48.41981" lon="2.71473">
        <ele>144.7</ele>
        <time>2016-04-19T19:27:32Z</time>
      </trkpt>
      <trkpt lat="48.42143" lon="2.71622">
        <ele>149.3</ele>
        <time>2016-04-19T19:27:32Z</time>
      </trkpt>
      <trkpt lat="48.421" lon="2.71838">
        <ele>149.8</ele>
      </trkpt>
      <trkpt lat="48.41988" lon="2.72203">
        <ele>127.8</ele>
        <time>2016-04-19T19:27:32Z</time>
      </trkpt>
      <trkpt lat="48.42003" lon="2.72315">
        <ele>116.2</ele>
      </trkpt>
      <trkpt lat="48.41958" lon="2.72384">
        <ele>122.3</ele>
      </trkpt>
      <trkpt lat="48.41945" lon="2.72378">
        <ele>125.2</ele>
      </trkpt>
      <trkpt lat="48.41951" lon="2.72549">
        <ele>116.1</ele>
        <time>2016-04-19T19:27:32Z</time>
      </trkpt>
      <trkpt lat="48.41918" lon="2.72532">
        <ele>122.1</ele>
      </trkpt>
      <trkpt lat="48.41916" lon="2.72443">
        <ele>127.7</ele>
      </trkpt>
      <trkpt lat="48.41929" lon="2.72318">
        <ele>131.4</ele>
      </trkpt>
      <trkpt lat="48.41801" lon="2.72207">
        <ele>123.9</ele>
      </trkpt>
      <trkpt lat="48.41768" lon="2.72239">
        <ele>118.3</ele>
        <time>2016-04-19T19:27:32Z</time>
      </trkpt>
      <trkpt lat="48.41783" lon="2.72348">
        <ele>117.6</ele>
      </trkpt>
      <trkpt lat="48.41713" lon="2.72508">
        <ele>106</ele>
        <time>2016-04-19T19:27:32Z</time>
      </trkpt>
      <trkpt lat="48.41239" lon="2.72546">
        <ele>66.9</ele>
        <time>2016-04-19T19:27:32Z</time>
      </trkpt>
      <trkpt lat="48.41054" lon="2.72299">
        <ele>65.1</ele>
      </trkpt>
      <trkpt lat="48.40945" lon="2.72239">
        <ele>59.7</ele>
      </trkpt>
      <trkpt lat="48.40857" lon="2.72015">
        <ele>63.5</ele>
        <time>2016-04-19T19:27:32Z</time>
      </trkpt>
      <trkpt lat="48.40784" lon="2.71794">
        <ele>65.3</ele>
        <time>2016-04-19T19:27:32Z</time>
      </trkpt>
      <trkpt lat="48.40343" lon="2.70516">
        <ele>75.8</ele>
        <time>2016-04-19T19:27:32Z</time>
      </trkpt>
      <trkpt lat="48.40339" lon="2.70488">
        <ele>76.1</ele>
        <time>2016-04-19T19:27:32Z</time>
      </trkpt>
      <trkpt lat="48.40508" lon="2.7015">
        <ele>85.2</ele>
        <time>2016-04-19T19:27:32Z</time>
      </trkpt>
      <trkpt lat="48.40382" lon="2.7">
        <ele>83.7</ele>
      </trkpt>
      <trkpt lat="48.40246" lon="2.69678">
        <ele>78.2</ele>
        <time>2016-04-19T19:27:32Z</time>
      </trkpt>
    </trkseg>
  </trk>
</gpx>